Regional Weather Roundup
Issued by NWS Little Rock, AR

Home | Current Version | Previous Version | Text Only | Print | Product List | Glossary On
Versions: 1 2 3 4 5 6 7 8 9 10 11 12 13 14 15 16 17 18 19 20 21 22 23 24 25 26 27 28 29 30 31 32 33 34 35 36 37 38 39 40 41 42 43 44 45 46 47 48 49 50
000
ASUS44 KLZK 291905
RWRLZK

WEATHER ROUNDUP FOR ARKANSAS
NATIONAL WEATHER SERVICE LITTLE ROCK AR
200 PM CDT SAT AUG 29 2015

NOTE: "FAIR" INDICATES FEW OR NO CLOUDS BELOW 12,000 FEET WITH NO
SIGNIFICANT WEATHER AND/OR OBSTRUCTIONS TO VISIBILITY.

ARZ001-003-010-029-292000-
NORTHWEST ARKANSAS

CITY           SKY/WX    TMP DP  RH WIND       PRES   REMARKS
FAYETTEVILLE   SUNNY     86  69  56 SW9       30.01F HX  90
FORT SMITH     SUNNY     87  67  51 SE7       29.99F HX  90
BENTONVILLE    SUNNY     84  64  51 W7        30.02F HX  86
ROGERS         MOSUNNY   86  68  54 SW8       30.01F HX  89
SILOAM SPGS    MOSUNNY   86  66  51 SW9       29.99S HX  88
HIGHFILL       SUNNY     87  70  56 SW10      30.00F HX  92
SPRINGDALE     SUNNY     86  66  51 SW9G16    30.03F HX  88
$$

ARZ004-005-016-292000-
NORTH CENTRAL ARKANSAS

CITY           SKY/WX    TMP DP  RH WIND       PRES   REMARKS
BATESVILLE     CLOUDY    73  66  78 E5        30.03F
FLIPPIN        PTSUNNY   77  64  65 S7        30.01F
MTN HOME       PTSUNNY   75  68  78 VRB7      30.03F
$$

ARZ040-041-292000-
WEST CENTRAL ARKANSAS

CITY           SKY/WX    TMP DP  RH WIND       PRES   REMARKS
MENA           MOSUNNY   84  70  61 CALM      30.05F HX  88
MOUNT IDA      CLOUDY    82  67  60 CALM      30.02F
$$

ARZ009-017-025-026-028-292000-
NORTHEAST ARKANSAS

CITY           SKY/WX    TMP DP  RH WIND       PRES   REMARKS
JONESBORO      CLOUDY    82  68  62 SW5       30.03F HX  85
NEWPORT        CLOUDY    82  68  62 CALM      30.05F HX  85
WALNUT RIDGE   CLOUDY    79  66  65 S6        30.03F
BLYTHEVILLE    MOSUNNY   88  67  49 SW7       30.04F HX  91
$$

ARZ022-023-033-042-044-292000-
CENTRAL ARKANSAS

CITY           SKY/WX    TMP DP  RH WIND       PRES   REMARKS
LITTLE ROCK    CLOUDY    88  62  41 S9        30.03F HX  88
N LITTLE ROCK  PTSUNNY   85  67  53 N3        30.03F HX  88
JACKSONVILLE   CLOUDY    87  64  47 VRB3      30.03F HX  88
SEARCY         CLOUDY    87  66  49 CALM      30.05F HX  89
HOT SPRINGS    CLOUDY    83  63  50 SE3       30.04F
RUSSELLVILLE   CLOUDY    79  65  62 E9        30.03F
$$

ARZ036-292000-
EAST ARKANSAS

CITY           SKY/WX    TMP DP  RH WIND       PRES   REMARKS
WEST MEMPHIS   MOSUNNY   90  63  40 SW8       30.03F HX  91
$$

ARZ050-053-066-070-073-292000-
SOUTHWEST ARKANSAS

CITY           SKY/WX    TMP DP  RH WIND       PRES   REMARKS
ARKADELPHIA    FAIR      89  70  53 VRB6      30.03F HX  94
CAMDEN         CLOUDY    88  66  48 S3        30.03F HX  90
TEXARKANA      CLOUDY    85  69  58 S9        30.02F HX  89
EL DORADO      CLOUDY    89  60  37 SW5       30.04F HX  89
DE QUEEN       CLOUDY    81  71  71 VRB5      30.01F HX  85
$$

ARZ056-057-069-292000-
SOUTHEAST ARKANSAS

CITY           SKY/WX    TMP DP  RH WIND       PRES   REMARKS
PINE BLUFF     PTSUNNY   90  64  42 SE6       30.04F HX  91
STUTTGART      PTSUNNY   88  63  42 SW5       30.04F HX  88
MONTICELLO     PTSUNNY   89  65  44 NW6       30.03F HX  91

$$




USA.gov is the U.S. government's official web portal to all federal, state and local government web resources and services.